FALCON 9 DEB (52315 NORAD) Tracking and Keplerian Element Data

This shows tracking and keplerian element data for the satellite.

Feedback or suggestion? Click here.




ElementValue
Catalog52315
NameFALCON 9 DEB
Epoch Orbit586
Epoch Day148.34555218
Epoch Year2022
RAAN187.3182
Inclination53.2004
Eccentricity0.0012458
Argument of Perigee24.9122
Mean Anonmoly335.2515
Mean Motion16.16610923
Decay Rate0.01394334
L11 52315U 22041BG 22148.34555218 .01394334 15419-2 92224-3 0 9996
L22 52315 53.2004 187.3182 0012458 24.9122 335.2515 16.16610923 5860

Live tracking and technical data element details for FALCON 9 DEB (NORAD 52315). FALCON 9 DEB can be tracked NOW for your location showing map with azimuth and elevation plus other details from your city location.

Track the satellite on the map from your city or location and see movement details for azimuth, elevation, latitude, longitude, range, height, and movement on the map or in text.







IsCatalogInMostPopularTable: catalog: 52315, numindb: 1
Update: records affected: 1



GetName: 52315 FALCON 9 DEB

Hit Count: updated at: Sat, 25 Jun 2022 04:35:46 GMT